Location: Bryzozowice
(50.3667°N, 18.9667°E)
Time: 00:14:50
(UTC+00:00)

Cosmos-2242 - Pass Details

Date: 24 January 2020
Orbit: 590 x 618 km, 82.5° (Epoch: 28 February)

Event Time Altitude Azimuth Distance (km) Brightness Sun altitude
Rises 15:47:56 0° 358° (N) 2,879 6.2 -4.4°
Reaches altitude 10° 15:50:28 10° 11° (N) 1,964 5.3 -4.8°
Maximum altitude 15:54:08 26° 69° (ENE) 1,199 4.0 -5.3°
Drops below altitude 10° 15:57:45 10° 127° (SE) 1,937 5.3 -5.8°
Sets 16:00:14 0° 140° (SE) 2,829 6.3 -6.2°
